Lid_Strength_Index
7 4 3 3 2 1 1 1 1 1 1 0 -0 -0 -0 -0 -0 -0 0 -0 -0 -0 0 -0 1 -1 0 -0 -0 0 0 1
8 7 3 3 2 2 1 1 0 0 0 1 0 -0 -0 -0 -0 -0 0 0 0 0 -0 0 0 0 0 0 0 0 1 1
8 8 7 2 3 2 3 2 1 0 0 3 2 1 0 -0 -0 -0 -0 0 0 0 0 0 0 0 0 0 1 1 2 2
9 8 6 3 2 2 2 1 1 0 2 4 2 -0 -0 -0 -0 -0 -0 -0 0 1 1 1 0 0 0 0 1 1 2 2
6 6 5 6 2 2 2 1 1 1 1 2 2 0 -0 0 0 -0 -0 -0 0 0 1 1 1 0 0 1 1 2 2 2
6 5 4 3 2 2 2 1 1 1 1 1 1 0 0 0 0 -0 -0 -0 0 0 1 2 1 1 1 1 2 1 1 1
5 4 4 3 2 2 2 2 3 3 3 2 1 0 0 0 0 0 0 -0 0 1 0 1 1 1 1 1 1 2 1 1
5 5 4 2 2 2 1 2 3 5 5 1 1 1 1 0 1 1 0 0 0 1 1 1 2 1 2 2 2 1 1 1
6 5 4 3 3 4 3 2 1 3 3 2 2 2 2 1 1 1 1 0 0 1 1 1 2 2 1 3 2 2 2 2
6 5 3 4 3 2 2 5 4 2 1 1 1 1 1 1 1 1 1 1 0 0 0 1 1 1 2 2 2 2 2 2
5 4 4 4 3 3 3 2 3 2 3 1 2 2 2 2 2 1 0 0 1 1 1 0 1 1 1 2 1 2 3 2
5 5 5 4 4 3 3 3 2 2 1 2 2 3 4 3 2 2 1 0 0 0 1 1 1 1 1 1 1 1 2 3
6 5 5 5 4 3 3 3 3 3 3 3 2 3 2 2 2 2 1 1 0 0 1 1 1 1 1 1 1 1 1 2
7 6 6 6 6 5 4 4 4 3 2 2 2 3 3 3 3 2 2 1 1 1 0 1 1 1 2 1 1 1 1 1
7 7 7 7 7 6 5 5 5 4 3 3 3 2 3 2 2 2 2 2 2 1 1 1 1 1 1 1 1 1 1 2
8 8 8 7 7 6 5 5 5 4 4 3 3 3 2 2 2 2 3 2 1 1 1 1 1 1 1 2 4 4 3 2
8 8 8 7 8 7 7 6 5 5 4 5 5 4 3 2 2 2 2 1 1 1 1 1 1 1 1 1 3 4 2 2
9 8 7 7 7 7 7 7 7 6 6 6 5 5 4 3 2 3 2 2 1 1 1 1 1 1 1 2 2 3 2 1
9 8 8 8 8 8 8 8 8 8 7 7 7 6 5 4 3 3 1 2 1 1 1 1 1 1 1 2 3 2 2 2
9 8 8 9 9 8 8 8 8 8 7 8 8 8 7 6 5 3 2 2 1 1 1 1 1 1 1 2 2 2 2 2